Tracking 31027 objects as of 19-Jul-2025
HD Live streaming from Space Station
objects crossing your sky now

STARLINK-30990

Track STARLINK-30990 now!
10-day predictions
STARLINK-30990 is classified as:


NORAD ID: 58478
Int'l Code: 2023-186F
Perigee: 565.1 km
Apogee: 567.3 km
Inclination: 43.0 °
Period: 95.8 minutes
Semi major axis: 6937 km
RCS: Unknown
Launch date: December 3, 2023
Source: United States (US)
Launch site: AIR FORCE EASTERN TEST RANGE (AFETR)
Your satellite tracking list
MOLNIYA 1-86
Track 1 satellite(s)




NASA's NSSDC Master Catalog

Two Line Element Set (TLE):
1 58478U 23186F   25199.84597278  .00001873  00000-0  15369-3 0  9994
2 58478  43.0017 258.2415 0001536 263.5801  96.4866 15.02544169 90731
Source of the keplerian elements: AFSPC